SWR1PL LSZH-EDDB

Flight info

Callsign SWR1PL
Flight time 1h 9m
Altitude 36000
Route DEGES Z1 ETAGO DCT TIKNI/N0453F370 T279 TAMEB T278 KLF KLF1R
Aircraft A320/M-SDE3FGHIRWY/LB1

Departure

Time 2026-05-07 12:25
Airport Zürich Airport (LSZH)

Arrival

Time 2026-05-07 13:35
Airport Berlin Brandenburg Airport (EDDB)
Time Latitude Longitude Altitude Speed Heading
2026-05-07 11:52 47.45426 8.55803 1407 ft 0 kts 186°
2026-05-07 12:13 47.45446 8.55806 1407 ft 4 kts 180°
2026-05-07 12:14 47.45472 8.55803 1407 ft 3 kts 166°
2026-05-07 12:14 47.45497 8.55788 1407 ft 3 kts 137°
2026-05-07 12:14 47.45507 8.55764 1411 ft 0 kts 96°
2026-05-07 12:17 47.45505 8.55790 1409 ft 8 kts 96°
2026-05-07 12:18 47.45500 8.55865 1407 ft 7 kts 96°
2026-05-07 12:18 47.45495 8.55929 1407 ft 6 kts 96°
2026-05-07 12:18 47.45489 8.56020 1410 ft 9 kts 96°
2026-05-07 12:18 47.45483 8.56115 1407 ft 9 kts 96°
2026-05-07 12:19 47.45481 8.56204 1408 ft 8 kts 79°
2026-05-07 12:19 47.45501 8.56255 1414 ft 4 kts 51°
2026-05-07 12:19 47.45503 8.56259 1413 ft 0 kts 51°
2026-05-07 12:20 47.45506 8.56265 1413 ft 4 kts 51°
2026-05-07 12:20 47.45525 8.56299 1414 ft 7 kts 51°
2026-05-07 12:20 47.45564 8.56370 1413 ft 8 kts 50°
2026-05-07 12:20 47.45594 8.56482 1414 ft 15 kts 93°
2026-05-07 12:21 47.45586 8.56611 1417 ft 11 kts 95°
2026-05-07 12:21 47.45579 8.56711 1420 ft 10 kts 96°
2026-05-07 12:21 47.45571 8.56815 1420 ft 9 kts 96°
2026-05-07 12:21 47.45565 8.56896 1420 ft 7 kts 96°
2026-05-07 12:22 47.45563 8.56965 1421 ft 8 kts 81°
2026-05-07 12:22 47.45572 8.56989 1421 ft 0 kts 54°
2026-05-07 12:22 47.45573 8.56991 1421 ft 3 kts 51°
2026-05-07 12:23 47.45620 8.57020 1425 ft 9 kts
2026-05-07 12:23 47.45665 8.56986 1424 ft 9 kts 282°
2026-05-07 12:23 47.45666 8.56965 1424 ft 0 kts 275°
2026-05-07 12:23 47.45666 8.56960 1424 ft 1 kts 275°
2026-05-07 12:24 47.45666 8.56951 1424 ft 1 kts 275°
2026-05-07 12:24 47.45669 8.56902 1423 ft 17 kts 275°
2026-05-07 12:24 47.45712 8.56310 1415 ft 95 kts 276°
2026-05-07 12:24 47.45806 8.55016 1402 ft 155 kts 276°
2026-05-07 12:25 47.45923 8.53363 1927 ft 162 kts 277°
2026-05-07 12:25 47.46029 8.51701 2726 ft 164 kts 275°
2026-05-07 12:25 47.46136 8.49921 3148 ft 185 kts 275°
2026-05-07 12:25 47.46117 8.47920 3478 ft 207 kts 251°
2026-05-07 12:26 47.45460 8.46006 4089 ft 214 kts 242°
2026-05-07 12:26 47.44732 8.44076 4966 ft 217 kts 243°
2026-05-07 12:26 47.44009 8.42120 5818 ft 217 kts 243°
2026-05-07 12:26 47.43295 8.40146 6655 ft 219 kts 243°
2026-05-07 12:27 47.42495 8.38226 7426 ft 223 kts 227°
2026-05-07 12:27 47.41170 8.37044 8170 ft 230 kts 195°
2026-05-07 12:27 47.39563 8.37123 8999 ft 239 kts 162°
2026-05-07 12:27 47.38209 8.38570 9764 ft 249 kts 127°
2026-05-07 12:28 47.37669 8.40981 10456 ft 258 kts 89°
2026-05-07 12:28 47.38195 8.43488 11140 ft 261 kts 53°
2026-05-07 12:28 47.39366 8.45553 11875 ft 264 kts 47°
2026-05-07 12:28 47.40578 8.47600 12648 ft 267 kts 47°
2026-05-07 12:29 47.41808 8.49674 13425 ft 270 kts 47°
2026-05-07 12:29 47.43108 8.51666 14119 ft 272 kts 38°
2026-05-07 12:29 47.44633 8.53339 14790 ft 273 kts 37°
2026-05-07 12:29 47.45916 8.55418 15392 ft 281 kts 61°
2026-05-07 12:30 47.46516 8.58232 15575 ft 303 kts 83°
2026-05-07 12:30 47.46638 8.61460 15744 ft 326 kts 91°
2026-05-07 12:30 47.46564 8.64919 15876 ft 349 kts 93°
2026-05-07 12:30 47.46472 8.68617 16005 ft 370 kts 89°
2026-05-07 12:31 47.46912 8.72433 16227 ft 386 kts 69°
2026-05-07 12:31 47.48239 8.75884 16753 ft 390 kts 48°
2026-05-07 12:31 47.50283 8.78510 17364 ft 391 kts 33°
2026-05-07 12:31 47.52535 8.80801 18013 ft 394 kts 32°
2026-05-07 12:32 47.54786 8.83056 18611 ft 397 kts 32°
2026-05-07 12:32 47.57086 8.85346 19206 ft 401 kts 32°
2026-05-07 12:32 47.59397 8.87651 19798 ft 404 kts 32°
2026-05-07 12:32 47.61766 8.90019 20401 ft 407 kts 32°
2026-05-07 12:33 47.66474 8.94764 21577 ft 414 kts 32°
2026-05-07 12:33 47.68862 8.97189 22180 ft 417 kts 33°
2026-05-07 12:33 47.71260 8.99628 22719 ft 420 kts 33°
2026-05-07 12:34 47.73644 9.02054 23201 ft 422 kts 33°
2026-05-07 12:34 47.76073 9.04525 23686 ft 425 kts 33°
2026-05-07 12:34 47.78519 9.07012 24095 ft 428 kts 33°
2026-05-07 12:34 47.80963 9.09501 24491 ft 430 kts 33°
2026-05-07 12:35 47.83447 9.12032 24884 ft 432 kts 33°
2026-05-07 12:35 47.85934 9.14561 25276 ft 433 kts 33°
2026-05-07 12:35 47.88425 9.17102 25683 ft 435 kts 33°
2026-05-07 12:35 47.90918 9.19652 26064 ft 436 kts 33°
2026-05-07 12:36 47.93427 9.22227 26431 ft 438 kts 33°
2026-05-07 12:36 47.95912 9.24780 26782 ft 440 kts 33°
2026-05-07 12:36 47.98428 9.27366 27137 ft 442 kts 33°
2026-05-07 12:36 48.00969 9.29977 27486 ft 443 kts 33°
2026-05-07 12:37 48.03513 9.32596 27816 ft 445 kts 33°
2026-05-07 12:37 48.06064 9.35226 28156 ft 447 kts 33°
2026-05-07 12:37 48.08628 9.37875 28471 ft 448 kts 33°
2026-05-07 12:37 48.11198 9.40531 28762 ft 450 kts 33°
2026-05-07 12:38 48.13873 9.42932 29079 ft 449 kts 25°
2026-05-07 12:38 48.16723 9.44680 29384 ft 448 kts 16°
2026-05-07 12:38 48.19739 9.45787 29647 ft 447 kts
2026-05-07 12:38 48.22834 9.46207 29936 ft 446 kts 359°
2026-05-07 12:39 48.25934 9.46207 30252 ft 445 kts 359°
2026-05-07 12:39 48.29036 9.46202 30476 ft 447 kts 358°
2026-05-07 12:39 48.32152 9.46200 30693 ft 448 kts 358°
2026-05-07 12:39 48.35270 9.46201 30939 ft 449 kts 358°
2026-05-07 12:40 48.38395 9.46203 31207 ft 449 kts 358°
2026-05-07 12:40 48.41526 9.46203 31467 ft 450 kts 358°
2026-05-07 12:40 48.44656 9.46205 31734 ft 450 kts 358°
2026-05-07 12:40 48.47717 9.46210 32003 ft 450 kts 358°
2026-05-07 12:41 48.50879 9.46216 32267 ft 451 kts 358°
2026-05-07 12:41 48.54018 9.46223 32538 ft 451 kts 358°
2026-05-07 12:41 48.57163 9.46206 32805 ft 451 kts 358°
2026-05-07 12:41 48.60302 9.46168 33090 ft 451 kts 357°
2026-05-07 12:42 48.63439 9.46120 33375 ft 451 kts 357°
2026-05-07 12:42 48.66580 9.46072 33674 ft 452 kts 357°
2026-05-07 12:42 48.69721 9.46029 33978 ft 452 kts 358°
2026-05-07 12:42 48.72867 9.46103 34259 ft 453 kts
2026-05-07 12:43 48.75961 9.46737 34496 ft 455 kts
2026-05-07 12:43 48.79092 9.47487 34708 ft 456 kts
2026-05-07 12:43 48.82221 9.48237 34919 ft 457 kts
2026-05-07 12:43 48.85361 9.48992 35125 ft 457 kts
2026-05-07 12:44 48.88509 9.49748 35330 ft 458 kts
2026-05-07 12:44 48.91651 9.50500 35534 ft 458 kts
2026-05-07 12:44 48.94801 9.51255 35729 ft 459 kts
2026-05-07 12:44 48.97954 9.52009 35937 ft 459 kts
2026-05-07 12:45 49.01113 9.52765 36128 ft 460 kts
2026-05-07 12:45 49.04239 9.53518 36331 ft 460 kts
2026-05-07 12:45 49.07398 9.54281 36519 ft 461 kts
2026-05-07 12:45 49.10573 9.55049 36708 ft 461 kts
2026-05-07 12:46 49.13739 9.55813 36893 ft 462 kts
2026-05-07 12:46 49.16917 9.56580 37026 ft 463 kts
2026-05-07 12:46 49.23300 9.58118 37029 ft 464 kts
2026-05-07 12:47 49.29683 9.59653 37030 ft 464 kts
2026-05-07 12:47 49.36017 9.61195 37039 ft 464 kts
2026-05-07 12:48 49.42397 9.62760 37030 ft 464 kts
2026-05-07 12:48 49.48775 9.64315 37030 ft 464 kts
2026-05-07 12:49 49.55151 9.65876 37033 ft 464 kts
2026-05-07 12:49 49.61486 9.67435 37037 ft 464 kts
2026-05-07 12:50 49.67868 9.69004 37040 ft 464 kts
2026-05-07 12:50 49.74243 9.70588 37038 ft 464 kts
2026-05-07 12:51 49.80619 9.72164 37044 ft 464 kts
2026-05-07 12:51 49.86962 9.73736 37039 ft 464 kts
2026-05-07 12:52 49.93340 9.75328 37036 ft 464 kts
2026-05-07 12:52 49.99719 9.76930 37035 ft 465 kts
2026-05-07 12:53 50.06109 9.78530 37039 ft 465 kts
2026-05-07 12:53 50.12452 9.80113 37040 ft 465 kts
2026-05-07 12:54 50.18846 9.81718 37041 ft 465 kts
2026-05-07 12:54 50.25231 9.83330 37041 ft 465 kts
2026-05-07 12:55 50.31619 9.84956 37040 ft 465 kts
2026-05-07 12:55 50.37895 9.87059 37036 ft 466 kts 19°
2026-05-07 12:56 50.43533 9.91996 37032 ft 467 kts 39°
2026-05-07 12:56 50.48131 9.99206 37028 ft 467 kts 46°
2026-05-07 12:57 50.52593 10.06630 37026 ft 467 kts 46°
2026-05-07 12:57 50.57058 10.14069 37013 ft 467 kts 46°
2026-05-07 12:58 50.61477 10.21462 37014 ft 467 kts 46°
2026-05-07 12:58 50.65695 10.29228 37007 ft 467 kts 57°
2026-05-07 12:59 50.68872 10.38170 37000 ft 468 kts 62°
2026-05-07 12:59 50.71977 10.47198 36997 ft 469 kts 62°
2026-05-07 13:00 50.75060 10.56184 37008 ft 469 kts 62°
2026-05-07 13:00 50.78151 10.65246 37015 ft 469 kts 62°
2026-05-07 13:01 50.81241 10.74348 37027 ft 470 kts 62°
2026-05-07 13:01 50.84322 10.83461 37035 ft 469 kts 62°
2026-05-07 13:02 50.87400 10.92576 37032 ft 469 kts 62°
2026-05-07 13:02 50.90450 11.01640 37040 ft 470 kts 62°
2026-05-07 13:03 50.93512 11.10786 37039 ft 470 kts 62°
2026-05-07 13:03 50.96557 11.19938 37037 ft 470 kts 63°
2026-05-07 13:04 50.99610 11.29121 37028 ft 470 kts 63°
2026-05-07 13:04 51.02642 11.38241 37035 ft 470 kts 63°
2026-05-07 13:05 51.05682 11.47439 37032 ft 470 kts 63°
2026-05-07 13:05 51.08708 11.56657 37031 ft 470 kts 63°
2026-05-07 13:06 51.11717 11.65880 37032 ft 470 kts 63°
2026-05-07 13:06 51.14724 11.75114 37037 ft 470 kts 63°
2026-05-07 13:07 51.17705 11.84289 37039 ft 470 kts 63°
2026-05-07 13:07 51.20811 11.93471 37048 ft 470 kts 57°
2026-05-07 13:08 51.25051 12.01379 36668 ft 469 kts 46°
2026-05-07 13:08 51.27292 12.05123 36249 ft 461 kts 47°
2026-05-07 13:08 51.29484 12.08800 35902 ft 454 kts 47°
2026-05-07 13:09 51.31643 12.12436 35535 ft 448 kts 47°
2026-05-07 13:09 51.33747 12.15982 34941 ft 446 kts 47°
2026-05-07 13:09 51.35889 12.19604 33849 ft 457 kts 47°
2026-05-07 13:09 51.38103 12.23351 32842 ft 460 kts 47°
2026-05-07 13:10 51.40288 12.27063 32020 ft 457 kts 47°
2026-05-07 13:10 51.42455 12.30750 31226 ft 453 kts 47°
2026-05-07 13:10 51.44610 12.34420 30424 ft 450 kts 47°
2026-05-07 13:10 51.46748 12.38064 29679 ft 446 kts 47°
2026-05-07 13:11 51.48877 12.41691 29386 ft 447 kts 47°
2026-05-07 13:11 51.50980 12.45277 29106 ft 449 kts 47°
2026-05-07 13:11 51.53102 12.48898 28928 ft 438 kts 47°
2026-05-07 13:11 51.55151 12.52400 28535 ft 423 kts 47°
2026-05-07 13:12 51.57132 12.55797 28256 ft 411 kts 47°
2026-05-07 13:12 51.59056 12.59105 28056 ft 397 kts 47°
2026-05-07 13:12 51.60908 12.62292 27916 ft 384 kts 47°
2026-05-07 13:12 51.62700 12.65375 27362 ft 373 kts 47°
2026-05-07 13:13 51.64461 12.68411 26594 ft 368 kts 47°
2026-05-07 13:13 51.66168 12.71362 25823 ft 364 kts 47°
2026-05-07 13:13 51.67891 12.74340 25050 ft 361 kts 47°
2026-05-07 13:13 51.69591 12.77281 24300 ft 357 kts 47°
2026-05-07 13:14 51.71277 12.80201 23527 ft 355 kts 47°
2026-05-07 13:14 51.72943 12.83093 22822 ft 348 kts 47°
2026-05-07 13:14 51.74589 12.85954 22301 ft 348 kts 47°
2026-05-07 13:14 51.76237 12.88822 21772 ft 348 kts 47°
2026-05-07 13:15 51.77819 12.91766 21289 ft 347 kts 54°
2026-05-07 13:15 51.79134 12.95028 20769 ft 347 kts 59°
2026-05-07 13:15 51.80381 12.98355 20301 ft 347 kts 59°
2026-05-07 13:15 51.81610 13.01638 20024 ft 341 kts 59°
2026-05-07 13:16 51.82825 13.04886 19491 ft 336 kts 59°
2026-05-07 13:16 51.84031 13.08108 18872 ft 333 kts 60°
2026-05-07 13:16 51.85217 13.11280 18419 ft 324 kts 59°
2026-05-07 13:16 51.86366 13.14348 17959 ft 313 kts 60°
2026-05-07 13:17 51.87476 13.17309 17532 ft 304 kts 59°
2026-05-07 13:17 51.88572 13.20240 17118 ft 305 kts 60°
2026-05-07 13:17 51.89671 13.23186 16690 ft 306 kts 59°
2026-05-07 13:17 51.90770 13.26147 16243 ft 308 kts 60°
2026-05-07 13:18 51.91856 13.29081 15816 ft 310 kts 60°
2026-05-07 13:18 51.92971 13.32095 15357 ft 313 kts 60°
2026-05-07 13:18 51.94093 13.35134 14894 ft 316 kts 60°
2026-05-07 13:18 51.95228 13.38210 14392 ft 320 kts 60°
2026-05-07 13:19 51.96381 13.41331 13897 ft 325 kts 60°
2026-05-07 13:19 51.97548 13.44463 13560 ft 322 kts 57°
2026-05-07 13:19 51.99006 13.47076 12959 ft 316 kts 35°
2026-05-07 13:19 52.00987 13.48592 12329 ft 311 kts 13°
2026-05-07 13:20 52.03096 13.48811 11880 ft 309 kts 353°
2026-05-07 13:20 52.05147 13.47780 11476 ft 307 kts 330°
2026-05-07 13:20 52.06816 13.45732 10914 ft 300 kts 313°
2026-05-07 13:20 52.08109 13.43118 10385 ft 292 kts 306°
2026-05-07 13:21 52.09280 13.40554 10207 ft 273 kts 306°
2026-05-07 13:21 52.10406 13.38121 9755 ft 266 kts 307°
2026-05-07 13:21 52.11515 13.35735 9216 ft 262 kts 308°
2026-05-07 13:21 52.12601 13.33399 8751 ft 255 kts 308°
2026-05-07 13:22 52.13642 13.31154 8309 ft 247 kts 308°
2026-05-07 13:22 52.14638 13.29000 8093 ft 231 kts 309°
2026-05-07 13:22 52.15590 13.26934 7674 ft 226 kts 309°
2026-05-07 13:22 52.16528 13.24900 7261 ft 223 kts 309°
2026-05-07 13:23 52.17454 13.22892 6878 ft 221 kts 307°
2026-05-07 13:23 52.18147 13.20670 6479 ft 220 kts 288°
2026-05-07 13:23 52.18385 13.18219 6067 ft 221 kts 271°
2026-05-07 13:23 52.18161 13.15739 5751 ft 222 kts 255°
2026-05-07 13:24 52.17676 13.13353 5500 ft 221 kts 250°
2026-05-07 13:24 52.17138 13.11044 5230 ft 221 kts 250°
2026-05-07 13:24 52.16600 13.08718 5016 ft 219 kts 250°
2026-05-07 13:24 52.16067 13.06397 4761 ft 218 kts 250°
2026-05-07 13:25 52.15543 13.04092 4462 ft 217 kts 252°
2026-05-07 13:25 52.15380 13.01693 4134 ft 214 kts 284°
2026-05-07 13:25 52.16069 12.99630 3836 ft 207 kts 319°
2026-05-07 13:25 52.17162 12.98130 3526 ft 205 kts 327°
2026-05-07 13:26 52.18422 12.97098 3244 ft 201 kts 347°
2026-05-07 13:26 52.19778 12.96801 3023 ft 194 kts
2026-05-07 13:26 52.21074 12.96951 2884 ft 184 kts 16°
2026-05-07 13:26 52.22201 12.97781 2769 ft 174 kts 37°
2026-05-07 13:27 52.23012 12.99181 2519 ft 171 kts 57°
2026-05-07 13:27 52.23498 13.00972 2197 ft 173 kts 66°
2026-05-07 13:27 52.23942 13.02794 1995 ft 172 kts 67°
2026-05-07 13:27 52.24385 13.04617 1957 ft 173 kts 67°
2026-05-07 13:28 52.24826 13.06433 1957 ft 173 kts 68°
2026-05-07 13:28 52.25270 13.08264 1965 ft 172 kts 67°
2026-05-07 13:28 52.25712 13.10086 1963 ft 173 kts 67°
2026-05-07 13:28 52.26147 13.11882 1967 ft 173 kts 67°
2026-05-07 13:29 52.26589 13.13709 1972 ft 173 kts 67°
2026-05-07 13:29 52.27030 13.15534 1976 ft 173 kts 67°
2026-05-07 13:29 52.27473 13.17365 1972 ft 173 kts 66°
2026-05-07 13:29 52.27913 13.19190 1971 ft 172 kts 68°
2026-05-07 13:30 52.28349 13.20999 1981 ft 173 kts 67°
2026-05-07 13:30 52.28791 13.22831 1976 ft 172 kts 67°
2026-05-07 13:30 52.29229 13.24652 1975 ft 172 kts 67°
2026-05-07 13:30 52.29668 13.26475 1982 ft 172 kts 67°
2026-05-07 13:31 52.30101 13.28277 1980 ft 173 kts 66°
2026-05-07 13:31 52.30538 13.30099 1978 ft 174 kts 67°
2026-05-07 13:31 52.30982 13.31950 1975 ft 170 kts 67°
2026-05-07 13:31 52.31382 13.33621 1873 ft 147 kts 66°
2026-05-07 13:32 52.31729 13.35070 1737 ft 128 kts 67°
2026-05-07 13:32 52.31944 13.35966 1634 ft 129 kts 68°
2026-05-07 13:32 52.32268 13.37315 1463 ft 128 kts 66°
2026-05-07 13:32 52.32593 13.38676 1301 ft 128 kts 67°
2026-05-07 13:33 52.32916 13.40029 1115 ft 127 kts 67°
2026-05-07 13:33 52.33345 13.41805 865 ft 128 kts 68°
2026-05-07 13:33 52.33681 13.43149 666 ft 130 kts 69°
2026-05-07 13:33 52.34002 13.44526 508 ft 128 kts 68°
2026-05-07 13:34 52.34211 13.45422 408 ft 126 kts 69°
2026-05-07 13:34 52.34845 13.48074 155 ft 111 kts 69°
2026-05-07 13:34 52.35081 13.49081 154 ft 82 kts 69°
2026-05-07 13:35 52.35286 13.49847 154 ft 26 kts 48°
2026-05-07 13:35 52.35395 13.50016 154 ft 14 kts 39°
2026-05-07 13:35 52.35429 13.50063 154 ft 5 kts 40°
2026-05-07 13:35 52.35445 13.50084 156 ft 3 kts 40°
2026-05-07 13:36 52.35453 13.50096 154 ft 0 kts 40°
2026-05-07 13:36 52.35471 13.50120 154 ft 8 kts 39°
2026-05-07 13:36 52.35518 13.50183 154 ft 9 kts 39°
2026-05-07 13:36 52.35569 13.50248 154 ft 12 kts 38°
2026-05-07 13:37 52.35615 13.50360 154 ft 11 kts 69°
2026-05-07 13:37 52.35643 13.50478 154 ft 11 kts 69°
2026-05-07 13:37 52.35676 13.50619 155 ft 17 kts 68°
2026-05-07 13:37 52.35719 13.50792 155 ft 15 kts 59°
2026-05-07 13:38 52.35805 13.50803 155 ft 12 kts 338°
2026-05-07 13:38 52.35876 13.50758 155 ft 13 kts 339°
2026-05-07 13:38 52.35968 13.50700 155 ft 16 kts 339°
2026-05-07 13:38 52.36075 13.50634 155 ft 16 kts 339°
2026-05-07 13:39 52.36164 13.50578 155 ft 11 kts 339°
2026-05-07 13:39 52.36231 13.50535 155 ft 11 kts 339°
2026-05-07 13:39 52.36287 13.50499 155 ft 7 kts 339°
2026-05-07 13:39 52.36348 13.50464 155 ft 8 kts 356°
2026-05-07 13:40 52.36369 13.50510 155 ft 3 kts 71°
2026-05-07 13:40 52.36372 13.50526 155 ft 4 kts 71°
2026-05-07 13:40 52.36378 13.50554 155 ft 1 kts 69°
2026-05-07 13:40 52.36383 13.50573 155 ft 1 kts 69°
2026-05-07 13:41 52.36384 13.50580 155 ft 1 kts 69°
2026-05-07 13:41 52.36386 13.50586 155 ft 0 kts 69°
2026-05-07 13:41 52.36386 13.50587 155 ft 0 kts 69°